Weather History for Winfield, KS

Change the Weather History Date:

Thursday, December 27, 2012

  Actual Average Record
Temperature  
Mean Temperature 29 °F -  
Max Temperature 37 °F 43 °F 66 °F (2003)
Min Temperature 21 °F 22 °F 19 °F (2010)
Degree Days  
Heating Degree Days 36    
Moisture  
Dew Point 22 °F    
Average Humidity 72    
Maximum Humidity 82    
Minimum Humidity 59    
Precipitation  
Precipitation 0.00 in - - ()
Sea Level Pressure  
Sea Level Pressure 29.98 in    
Wind  
Wind Speed 9 mph (SSE)    
Max Wind Speed 17 mph    
Max Gust Speed 23 mph    
Visibility 10 miles    
Events      
Averages and records for this station are not official NWS values.
T = Trace of Precipitation, MM = Missing Value Source: NWS Daily Summary

Daily Weather History Graph

Daily Weather History Graph

Search for Another Location

Airport:

Trip Planner

Search our weather history database for the weather conditions in past years. The results will help you decide how hot, cold, wet, or windy it might be!

Date:

Astronomy

Dec. 27, 2012 Rise Set
Actual Time 7:40 AM CST 5:18 PM CST
Civil Twilight 7:11 AM CST 5:47 PM CST
Nautical Twilight 6:39 AM CST 6:20 PM CST
Astronomical Twilight 6:07 AM CST 6:51 PM CST
Moon 5:01 PM CST (12/27) 6:53 AM CST (12/27)
Length of Visible Light 10h 35m
Length of Day
9h 37m
Full, 100% of the Moon is Illuminated
Dec 27
Full
Dec 28
Full
Jan 4
Last Quarter
Jan 11
New
Jan 18
First Quarter

Hourly Weather History & Observations

Time (CST) Temp. Windchill Dew Point Humidity Pressure Visibility Wind Dir Wind Speed Gust Speed Precip Events Conditions
12:54 AM 21.9 °F 17.2 °F 15.1 °F 75% 30.14 in 10.0 mi SE 3.5 mph - N/A   Clear
1:54 AM 25.0 °F 15.5 °F 16.0 °F 69% 30.11 in 10.0 mi ESE 9.2 mph - N/A   Clear
2:54 AM 25.0 °F 17.1 °F 17.1 °F 72% 30.11 in 10.0 mi ESE 6.9 mph - N/A   Clear
3:54 AM 24.1 °F 16.0 °F 17.1 °F 75% 30.09 in 10.0 mi SE 6.9 mph - N/A   Clear
4:54 AM 23.0 °F 15.8 °F 17.1 °F 78% 30.06 in 10.0 mi ESE 5.8 mph - N/A   Clear
5:54 AM 23.0 °F 11.7 °F 18.0 °F 81% 30.00 in 10.0 mi ESE 11.5 mph - N/A   Clear
6:54 AM 23.0 °F 11.1 °F 18.0 °F 81% 30.01 in 10.0 mi SE 12.7 mph - N/A   Clear
7:54 AM 23.0 °F 11.7 °F 18.0 °F 81% 30.02 in 9.0 mi SE 11.5 mph - N/A   Clear
8:54 AM 24.1 °F 12.5 °F 19.0 °F 81% 30.01 in 9.0 mi SSE 12.7 mph - N/A   Clear
9:39 AM 26.6 °F 15.7 °F 21.2 °F 80% 29.98 in 10.0 mi SSE 12.7 mph - N/A   Mostly Cloudy
9:54 AM 27.0 °F 15.2 °F 21.0 °F 78% 30.01 in 10.0 mi SSE 15.0 mph - N/A   Overcast
10:54 AM 30.9 °F 19.4 °F 23.0 °F 72% 30.00 in 10.0 mi South 17.3 mph 23.0 mph N/A   Mostly Cloudy
11:54 AM 32.0 °F 22.5 °F 24.1 °F 73% 29.97 in 10.0 mi SSE 12.7 mph - N/A   Mostly Cloudy
12:05 PM 35.6 °F 26.2 °F 24.8 °F 65% 29.93 in 10.0 mi South 15.0 mph 20.7 mph N/A   Scattered Clouds
12:54 PM 34.0 °F 25.5 °F 24.1 °F 67% 29.94 in 10.0 mi SSE 11.5 mph - N/A   Partly Cloudy
1:50 PM 35.6 °F 26.6 °F 24.8 °F 65% 29.88 in 10.0 mi South 13.8 mph - N/A   Mostly Cloudy
1:54 PM 35.1 °F 25.9 °F 24.1 °F 64% 29.91 in 10.0 mi SSE 13.8 mph - N/A   Mostly Cloudy
2:54 PM 37.0 °F 31.0 °F 24.1 °F 59% 29.90 in 10.0 mi SSE 8.1 mph - N/A   Scattered Clouds
3:04 PM 35.6 °F 29.9 °F 24.8 °F 65% 29.87 in 10.0 mi SSE 6.9 mph - N/A   Mostly Cloudy
3:16 PM 37.4 °F 30.8 °F 24.8 °F 60% 29.87 in 10.0 mi SSE 9.2 mph - N/A   Mostly Cloudy
3:54 PM 37.0 °F 30.4 °F 24.1 °F 59% 29.90 in 10.0 mi South 9.2 mph - N/A   Scattered Clouds
4:54 PM 36.0 °F 29.6 °F 23.0 °F 59% 29.91 in 10.0 mi South 8.1 mph - N/A   Mostly Cloudy
6:54 PM 32.0 °F 27.5 °F 23.0 °F 69% 29.94 in 10.0 mi SE 4.6 mph - N/A   Overcast
7:54 PM 30.9 °F 26.2 °F 23.0 °F 72% 29.96 in 10.0 mi SE 4.6 mph - N/A   Overcast
8:54 PM 30.9 °F 25.2 °F 24.1 °F 76% 29.97 in 10.0 mi South 5.8 mph - N/A   Overcast
9:54 PM 30.9 °F 25.2 °F 24.1 °F 76% 29.98 in 10.0 mi South 5.8 mph - N/A   Overcast
10:54 PM 30.9 °F 24.3 °F 24.1 °F 76% 29.99 in 10.0 mi South 6.9 mph - N/A   Overcast
11:44 PM 30.2 °F 24.3 °F 24.8 °F 80% 29.96 in 10.0 mi SW 5.8 mph - N/A   Overcast
11:54 PM 30.0 °F 24.1 °F 25.0 °F 82% 29.99 in 10.0 mi SW 5.8 mph - N/A   Overcast